User: anonymous   Login
Location: Buckeye Ditch
(40.9104°N, 122.9517°W)
Time: 21:50:27
(UTC+00:00)
Language:

Cosmos 1553 Rocket - Orbit

View from above orbital plane
View from above orbital plane
View from above satellite
View from above satellite

Ground track
Ground track

The orbit data is extracted from the following two-line orbital elements,

1 14974U 84046B   24170.61474914  .00000060  00000-0  45059-4 0  9990
2 14974  82.9367  38.8675 0045997  42.5394  15.6915 13.77059116 13988
Epoch (UTC): 18 June 2024 14:45:14
Eccentricity: 0.0045997
inclination: 82.9367°
perigee height: 940 km
apogee height: 1008 km
right ascension of ascending node: 38.8675°
argument of perigee: 42.5394°
revolutions per day: 13.77059116
mean anomaly at epoch: 15.6915°
orbit number at epoch: 1398

The dashed part of the orbit path shows where the satellite is in the earth's shadow,  

DLR